Location: Unspecified
(0.0000°N, 0.0000°E)
Time: 05:46:07
(UTC+00:00)

Hubble Space Telescope - Pass Details

Date: 06 August 2022
Orbit: 532 x 535 km, 28.5° (Epoch: 13 August)

Event Time Altitude Azimuth Distance (km) Brightness Sun altitude
Exits shadow 04:38:52 60° 208° (SSW) 605 0.7 -20.8°
Drops below altitude 10° 04:42:53 10° 130° (SE) 1,768 3.8 -19.9°
Sets 04:45:10 0° 126° (SE) 2,659 4.8 -19.3°
